Regional Weather Roundup
Issued by NWS

Home | Current Version | Previous Version | Graphics & Text | Print | Product List | Glossary On
Versions: 1 2 3 4 5 6 7 8 9 10 11 12 13 14 15 16 17 18 19 20 21 22 23 24 25 26 27 28 29 30 31 32 33 34 35 36 37 38 39 40 41 42 43 44 45 46 47 48 49 50
000
ASUS43 KMPX 280001
RWRMN
WEATHER ROUNDUP FOR MINNESOTA
NATIONAL WEATHER SERVICE TWIN CITIES/CHANHASSEN MN
600 PM CST TUE JAN 27 2015


NOTE: "FAIR" INDICATES FEW OR NO CLOUDS BELOW 12,000 FEET WITH NO
SIGNIFICANT WEATHER AND/OR OBSTRUCTIONS TO VISIBILITY. N/A MEANS
CURRENT SKY AND/OR WEATHER CONDITIONS ARE NOT AVAILABLE.

MNZ060>063-068>070-280100-
   Twin Cities Metro

CITY           SKY/WX    TMP DP  RH WIND       PRES   REMARKS
TWIN CITIES    CLOUDY    32  25  75 SE7       30.14F WCI  26
6HR MIN TEMP:  32; 6HR MAX TEMP:  33;

ST PAUL        CLOUDY    31  26  82 SE10      30.16F WCI  22
CRYSTAL        CLOUDY    33  26  75 SE7       30.12F WCI  27
BLAINE         CLOUDY    34  28  80 SE7       30.13S WCI  28
LAKEVILLE      CLOUDY    30  27  86 SE6       30.14R WCI  24
EDEN PRAIRIE   CLOUDY    33  26  75 S12       30.13R WCI  24
6HR MIN TEMP:  33; 6HR MAX TEMP:  35;

SOUTH ST PAUL  CLOUDY    32  26  77 SE7       30.15S WCI  26
LAKE ELMO      CLOUDY    32  27  80 SE9       30.15F WCI  24
$$
MNZ001>005-007-008-013>017-022>024-027-028-280100-
   Northwest Minnesota

CITY           SKY/WX    TMP DP  RH WIND       PRES   REMARKS
BEMIDJI        PTCLDY    31  27  85 SE8       30.01S WCI  23
HALLOCK        CLOUDY    32  30  93 S12       29.94S WCI  23
ROSEAU         MOCLDY    32  27  80 SE8       29.97F WCI  25
WARROAD        CLOUDY    32  27  80 SE9       29.99F WCI  24
THIEF RVR FALL MOCLDY    30  27  86 SE7       29.97F WCI  23
CROOKSTON      MOCLDY    32  30  93 S10       29.97F WCI  24
FOSSTON        MOCLDY    30  27  86 CALM      29.98S
DETROIT LAKES  CLOUDY    32  30  93 SE13      29.99F WCI  22
MOORHEAD       CLOUDY    34  34 100 S17G28    29.98F WCI  23
PARK RAPIDS    CLOUDY    31  26  82 S16       30.02R WCI  20
MAHNOMEN       FAIR      32  28  85 SE9       29.97S WCI  24
$$
MNZ006-009>011-018-025>026-280100-
   North Central Minnesota

CITY           SKY/WX    TMP DP  RH WIND       PRES   REMARKS
BAUDETTE       CLOUDY    32  25  75 SE8       30.01S WCI  25
FLAG ISLAND    CLOUDY    28  27  93 SE8       29.99F WCI  20
INTL FALLS     CLOUDY    30  24  78 SE6       30.06R WCI  24
6HR MIN TEMP:  26; 6HR MAX TEMP:  31;

WASKISH        CLOUDY    32  27  80 SE8       30.02F WCI  25
BIG FORK       CLOUDY    32  25  74 S5        30.06R WCI  27
LONGVILLE      MOCLDY    30  27  86 SE5       30.05S WCI  25
GRAND RAPIDS   CLOUDY    30  25  80 S8        30.07R WCI  23
CRANE LAKE     CLOUDY    25  23  93 CALM      30.11S
ORR            CLOUDY    27  23  86 SE6       30.05S WCI  20
COOK           CLOUDY    27  25  93 SE3       30.08F
WALKER         FAIR      30  26  83 SE6       30.03S WCI  24
$$
MNZ012-019>021-037-280100-
   Northeast Minnesota

CITY           SKY/WX    TMP DP  RH WIND       PRES   REMARKS
DULUTH         CLOUDY    27  22  81 S7        30.10S WCI  19
6HR MIN TEMP:  27; 6HR MAX TEMP:  28;

ELY            CLOUDY    27  23  86 S3        30.09S
HIBBING        CLOUDY    29  22  75 SE9       30.08F WCI  20
EVELETH        CLOUDY    28  23  80 S7        30.10F WCI  21
DULUTH HARBOR  CLOUDY    30  25  80 CALM      30.16F
TWO HARBORS    CLOUDY    30  25  80 CALM      30.12S
SILVER BAY     CLOUDY    28  25  86 CALM      30.12S
GRAND MARAIS     N/A     31  24  75 SW9       30.17S WCI  23
G MARAIS ARPRT   N/A     23  19  86 S5        30.10S WCI  17
$$
MNZ029>031-032-039>041-046>048-054>057-064-280100-
   West Central Minnesota

CITY           SKY/WX    TMP DP  RH WIND       PRES   REMARKS
FERGUS FALLS   CLOUDY    30  30 100 SE16      30.03S WCI  19
WHEATON        CLOUDY    30  28  93 SE20      30.01S WCI  18
MORRIS         CLOUDY    32  30  93 SE20      30.00S WCI  20
ALEXANDRIA     CLOUDY    31  28  89 SE13      30.03F WCI  21
ELBOW LAKE     CLOUDY    30  29  96 SE17G23   30.01R WCI  19
WADENA         CLOUDY    30  27  86 SE12      30.02F WCI  21
GLENWOOD       CLOUDY    30  28  93 SE15      30.04S WCI  19
APPLETON       CLOUDY    34  30  86 SE10      30.01F WCI  26
BENSON         CLOUDY    34  28  80 S12G18    30.04S WCI  25
ORTONVILLE     CLOUDY    32  30  93 SE14      29.99F WCI  22
MADISON        PTCLDY    36  36 100 CALM      30.01S VSB 1
WILLMAR        CLOUDY    34  30  86 SE16      30.06S WCI  23
$$
MNZ033>034-036-042>043-049>051-058-059-280100-
   Central Minnesota

CITY           SKY/WX    TMP DP  RH WIND       PRES   REMARKS
ST CLOUD       CLOUDY    32  27  81 S9        30.08F WCI  24
6HR MIN TEMP:  32; 6HR MAX TEMP:  34;

SAUK CENTRE    CLOUDY    31  29  90 SE15      30.05F WCI  21
PAYNESVILLE    CLOUDY    31  28  90 E10       30.06F WCI  22
AITKIN         CLOUDY    34  25  69 SE10      30.07S WCI  26
PINE RIVER     CLOUDY    30  27  86 SE10      30.08F WCI  21
BRAINERD       CLOUDY    31  26  82 S8        30.07S WCI  23
STAPLES        CLOUDY    30  27  86 SE5       30.05S WCI  25
LONG PRAIRIE   CLOUDY    30  28  93 SE14      30.05F WCI  20
LITTLE FALLS   CLOUDY    32  27  80 S8        30.08F WCI  25
LITCHFIELD     CLOUDY    36  32  87 SE7       30.08S
BUFFALO        CLOUDY    33  27  79 SE6       30.12S WCI  27
MAPLE LAKE     CLOUDY    33  30  86 SE6       30.11S WCI  28
$$
MNZ037-044-045-052-053-280100-
   East Central Minnesota

CITY           SKY/WX    TMP DP  RH WIND       PRES   REMARKS
PRINCETON      CLOUDY    34  27  75 E7        30.11F WCI  28
MORA           CLOUDY    32  25  74 S5        30.14R WCI  27
CAMBRIDGE      MOCLDY    34  23  64 SE6       30.11S WCI  29
RUSH CITY      MOCLDY    30  25  80 SE5       30.14R WCI  25
MOOSE LAKE     CLOUDY    30  23  74 CALM      30.11S
HINCKLEY       CLOUDY    32  27  80 S6        30.13R WCI  26
CLOQUET        CLOUDY    28  21  74 SE5       30.10S WCI  23
MCGREGOR       CLOUDY    32  27  80 S8        30.10R WCI  25
$$
MNZ071>073-080-081-089-090-097-098-280100-
   Southwest Minnesota

CITY           SKY/WX    TMP DP  RH WIND       PRES   REMARKS
MONTEVIDEO     CLOUDY    34  34 100 S13       30.03S WCI  25
GRANITE FALLS  CLOUDY    34  32  91 SE13G18   30.04F WCI  25
CANBY          CLEAR     34  32  93 SE6       30.01S WCI  29
MARSHALL       PTCLDY    36  30  80 SE12      30.03S
REDWOOD FALLS  CLOUDY    35  31  85 SE14      30.05F WCI  26
OLIVIA         CLOUDY    32  32 100 SE12      30.05F WCI  23
PIPESTONE      PTCLDY    37  36  93 SE12G17   29.99S
WINDOM         CLOUDY    36  34  93 SE15G21   30.05S
WORTHINGTON    PTCLDY    36  30  80 SE12      30.04S
JACKSON        CLOUDY    36  32  87 SE10      30.07S
TRACY          PTCLDY    36  33  90 S12       30.02F
SLAYTON        PTCLDY    35  33  92 SE14      30.02S WCI  25
$$
MNZ065>067-074>077-082>085-091>093-280100-
   South Central Minnesota

CITY           SKY/WX    TMP DP  RH WIND       PRES   REMARKS
MANKATO        CLOUDY    34  27  75 S10       30.10F WCI  26
NEW ULM        CLOUDY    34  30  86 S10       30.08F WCI  26
ST JAMES       CLOUDY    36  32  87 SE10      30.09F
FAIRMONT       CLOUDY    34  28  80 SE10      30.08F WCI  26
GLENCOE        CLOUDY    34  31  88 SE9       30.09F WCI  27
FARIBAULT      CLOUDY    32  28  86 SE7       30.13F WCI  26
OWATONNA       CLOUDY    32  27  80 S10       30.13S WCI  24
WASECA         CLOUDY    32  28  86 SE8       30.12F WCI  25
ALBERT LEA     CLOUDY    34  28  80 S8        30.11F WCI  27
$$
MNZ078>079-086>088-094>096-280100-
   Southeast Minnesota

CITY           SKY/WX    TMP DP  RH WIND       PRES   REMARKS
ROCHESTER      CLOUDY    29  24  82 SE10      30.15S WCI  20
6HR MIN TEMP:  28; 6HR MAX TEMP:  30;

RED WING       CLOUDY    30  23  74 SE5       30.17S WCI  25
STANTON        CLOUDY    33  27  77 S6        30.13S WCI  27
DODGE CENTER   CLOUDY    30  28  93 SE12      30.13S WCI  21
WINONA         CLOUDY    30  23  74 SE5       30.20F WCI  25
AUSTIN         CLOUDY    30  27  86 SE7       30.13S WCI  23
PRESTON        CLOUDY    28  24  85 SE7       30.16R WCI  20
$$
ABBREVIATIONS USED IN REMARKS
   TC - TEMPERATURES IN CELSIUS
  WCI - WIND CHILL INDEX
   HX - HEAT INDEX
  VSB - VISIBILITY
$$


USA.gov is the U.S. government's official web portal to all federal, state and local government web resources and services.